Tracking 30922 objects as of 2-Jul-2025
HD Live streaming from Space Station
objects crossing your sky now

DELTA 1 DEB

Track DELTA 1 DEB now!
10-day predictions


NORAD ID: 21548
Int'l Code: 1975-052HC
Perigee: 1,096.5 km
Apogee: 1,475.8 km
Inclination: 99.8 °
Period: 111.1 minutes
Semi major axis: 7657 km
RCS: 0.0496 m2 (small)
Launch date: June 12, 1975
Source: United States (US)
Launch site: AIR FORCE WESTERN TEST RANGE (AFWTR)

Note: This is SATELLITE DEBRIS
Your satellite tracking list
Your tracking list is empty




NASA's NSSDC Master Catalog

Two Line Element Set (TLE):
1 21548U 75052HC  25182.29137360 -.00000116  00000-0 -24583-3 0  9993
2 21548  99.8136 294.2232 0247640  98.5092 319.7082 12.95697738614017
Source of the keplerian elements: AFSPC